Tracking 19794 objects as of 23-Jul-2019
HD Live streaming from Space Station
objects crossing your sky now

THORAD DELTA 1 DEB

Track THORAD DELTA 1 DEB now!
10-day predictions


NORAD ID: 8178
Int'l Code: 1974-089AU
Perigee: 1,295.7 km
Apogee: 1,649.1 km
Inclination: 102.2 °
Period: 115.2 minutes
Semi major axis: 7843 km
RCS: 0.0233 m2 (small)
Launch date: November 15, 1974
Source: United States (US)
Launch site: AIR FORCE WESTERN TEST RANGE (AFWTR)

Note: This is SATELLITE DEBRIS
aabbcc
Your satellite tracking list
Your tracking list is empty




NASA's NSSDC Master Catalog

Two Line Element Set (TLE):
1  8178U 74089AU  19203.40670041  .00001535  00000-0  94976-2 0  9990
2  8178 102.2464 165.3569 0225280  78.1027  79.1825 12.49816632 10683
Source of the keplerian elements: AFSPC